EXPLORER 40 (INJUN-5)

Satellite information

Favourite Embed

Satellite Type and Status

PAYLOADIN ORBIT

Key statistics

Satellite EXPLORER 40 (INJUN-5) at a glance.

Uptime

20947

Days in orbit

Revolutions

≈ 12.2

Per day

Orbit

MEO

Medium Earth Orbit

Inclination

80.7

Latest

Satellite identification and parameters

Extended collection of information and parameters for EXPLORER 40 (INJUN-5).

Object identification

Identified? True

Debris? False

Object name: EXPLORER 40 (INJUN-5)

International designator: 1968-066B

Object number (NORAD): 3338

Object ID (CCSDS): 3338

Country: UNITED STATES OF AMERICA (US)

Current information (Y/N): Y

RCS size: LARGE

Orbital parameters

Period: 117.694 minutes

Inclination: 80.6614 deg

SMA: 7955.404 km

Apoapsis: 2476.793 km

Periapsis: 677.745 km

RAAN: 229.9731 deg

Eccentricy: 0.11307078

Argument of periapsis: 323.6483 deg

Mean anomaly: 29.2644 deg

Mean motion: 12.23515266 rev/day

Mean motion (dot): 0.00000243 rev/day2

B* drag term: 0.00025652668 1/REarth

Two-line elements (TLE)

Creation date: Dec. 12, 2025, 10:14 a.m.

Reference frame: TEME

Reference center: EARTH

Epoch: Dec. 12, 2025, 2:36 a.m. UTC

TLE line 0: 0 EXPLORER 40 (INJUN-5)

TLE line 1: 1 03338U 68066B 25346.10839620 .00000243 00000-0 25653-3 0 9995

TLE line 2: 2 03338 80.6614 229.9731 1130708 323.6483 29.2644 12.23515266555438

Live tracking on map

Real-time ground track for satellite EXPLORER 40 (INJUN-5).

In-orbit conjunctions

A list of the most updated potential collisions computed for object EXPLORER 40 (INJUN-5).

Target Orbit TCA Probability of collision Miss distance Type
FENGYUN 1C DEB SSO 2025-05-08 12:42:26 0.0002929574 81.0 (m) DEBRIS
THOR ABLESTAR DEB LEO 2025-03-06 03:54:38 0.0003043624 75.0 (m) DEBRIS
CZ-6A DEB LEO 2025-02-09 13:49:48 0.0002703666 926.0 (m) DEBRIS

Associated space launch

Explorer 39 was an inflatable sphere, 3.6 m in diameter. It was orbited to make atmospheric density determinations.

EXPLORER 40 (INJUN-5) was lifted into orbit during the mission ‘Scout B | Explorer 39’, on board a Scout B space rocket.

The launch took place on Aug. 8, 1968, 8:12 p.m. from Space Launch Complex 5.

For more information about the launch, click the button.

Launch to space Scout B | Explorer 39
Scout B | Explorer 39

Agency: N/A

Status: Launch Successful

Launch date: Aug. 8, 1968, 8:12 p.m. UTC

Rocket: Scout B

Launch pad: Space Launch Complex 5

Location: Vandenberg SFB, CA, USA

...

Latest news about this satellite

There are no fresh news available about this satellite. Check back as we update our databases every day.


Newsletter sign-up

Weekly statistics, charts and insights to help you stay on top of the space industry.